TimeCST,TemperatureF,Dew PointF,Humidity,Sea Level PressureIn,VisibilityMPH,Wind Direction,Wind SpeedMPH,Gust SpeedMPH,PrecipitationIn,Events,Conditions,WindDirDegrees,DateUTC
6:00 AM,,,,,1,Calm,Calm,,,,Overcast,,2013-08-19 12:00:00
6:00 AM,77.0,-9999,N/A,29.83,5.0,Calm,Calm,-,N/A,,Mostly Cloudy,0,2013-08-19 12:00:00
6:20 AM,75.2,73.4,94,29.84,0.6,SW,2.3,-,N/A,,Scattered Clouds,230,2013-08-19 12:20:00
6:30 AM,77.0,75.2,94,29.84,0.1,SW,3.5,-,N/A,Fog,Fog,230,2013-08-19 12:30:00
7:00 AM,77.0,75.2,94,29.85,0.2,NW,3.5,-,N/A,Fog,Fog,320,2013-08-19 13:00:00
7:10 AM,77.0,75.2,94,29.86,5.0,Calm,Calm,-,N/A,,Scattered Clouds,0,2013-08-19 13:10:00
8:00 AM,82.4,75.2,79,29.87,6.2,Calm,Calm,-,N/A,,Mostly Cloudy,0,2013-08-19 14:00:00
9:00 AM,83,75,72,29.88,12,North,2.3,,,,Partly Cloudy,0,2013-08-19 15:00:00
9:00 AM,84.2,75.2,74,29.87,6.2,North,2.3,-,N/A,,Overcast,360,2013-08-19 15:00:00
10:00 AM,87.8,75.2,66,29.87,6.2,NE,3.5,-,N/A,,Overcast,40,2013-08-19 16:00:00
11:00 AM,93.2,73.4,52,29.85,6.2,Calm,Calm,-,N/A,,Scattered Clouds,0,2013-08-19 17:00:00
12:00 PM,74,73,96,29.85,12,East,9.2,,,,Overcast,100,2013-08-19 18:00:00
12:00 PM,89.6,73.4,59,29.84,6.2,East,9.2,-,N/A,,Scattered Clouds,100,2013-08-19 18:00:00
1:00 PM,93.2,71.6,49,29.82,6.2,East,5.8,-,N/A,,Mostly Cloudy,90,2013-08-19 19:00:00
2:00 PM,93.2,68.0,44,29.78,6.2,NE,9.2,-,N/A,,Scattered Clouds,50,2013-08-19 20:00:00
3:00 PM,93,67,33,29.76,12,East,5.8,,,,Scattered Clouds,100,2013-08-19 21:00:00
3:00 PM,93.2,68.0,44,29.75,6.2,East,5.8,-,N/A,,Scattered Clouds,100,2013-08-19 21:00:00
4:00 PM,91.4,75.2,59,29.73,6.2,West,4.6,-,N/A,,Scattered Clouds,280,2013-08-19 22:00:00
5:00 PM,87.8,75.2,66,29.75,6.2,West,8.1,-,N/A,,Scattered Clouds,280,2013-08-19 23:00:00
6:00 PM,83,77,76,29.79,12,WNW,5.8,,,,Partly Cloudy,300,2013-08-20 00:00:00
6:00 PM,82.4,77.0,84,29.78,6.2,WNW,5.8,-,N/A,,Scattered Clouds,300,2013-08-20 00:00:00
7:00 PM,82.4,75.2,79,29.81,6.2,SSE,6.9,-,N/A,Rain-Thunderstorm,Rain,150,2013-08-20 01:00:00
8:00 PM,80.6,75.2,84,29.83,6.2,SE,3.5,-,N/A,,Scattered Clouds,130,2013-08-20 02:00:00